This is the latest recevied weather packets stored in our database for station/object K9RJT. If no packets are shown the sender has not sent any weather packets the latest 10 day(s).
| Time | Temp. | Humidity | Pressure | Rain* | Wind** | Luminosity | Snow |
|---|---|---|---|---|---|---|---|
| 1777510324 | 20° C | 34% | 1015.2 hPa | 0 mm | - | 120 W/m² | - |
| 1777510020 | 20° C | 34% | 1014.8 hPa | 0 mm | - | 133 W/m² | - |
| 1777509716 | 20° C | 33% | 1015 hPa | 0 mm | - | 143 W/m² | - |
| 1777509413 | 20° C | 33% | 1014.7 hPa | 0 mm | - | 160 W/m² | - |
| 1777509110 | 20° C | 34% | 1014.9 hPa | 0 mm | - | 177 W/m² | - |
| 1777508807 | 19.44° C | 34% | 1014.8 hPa | 0 mm | - | 189 W/m² | - |
| 1777508504 | 19.44° C | 33% | 1014.9 hPa | 0 mm | - | 206 W/m² | - |
| 1777508201 | 20° C | 33% | 1014.9 hPa | 0 mm | - | 222 W/m² | - |
| 1777507898 | 19.44° C | 33% | 1014.9 hPa | 0 mm | - | 234 W/m² | - |
| 1777507595 | 20° C | 33% | 1014.8 hPa | 0 mm | - | 245 W/m² | - |
| 1777507292 | 20° C | 33% | 1014.7 hPa | 0 mm | - | 259 W/m² | - |
| 1777506989 | 20° C | 33% | 1014.8 hPa | 0 mm | - | 269 W/m² | - |
| 1777506686 | 20° C | 33% | 1014.8 hPa | 0 mm | - | 281 W/m² | - |
| 1777506383 | 20° C | 33% | 1014.8 hPa | 0 mm | - | 293 W/m² | - |
| 1777506079 | 20° C | 33% | 1015 hPa | 0 mm | - | 306 W/m² | - |
| 1777505774 | 19.44° C | 33% | 1014.9 hPa | 0 mm | - | 318 W/m² | - |
| 1777505472 | 20° C | 32% | 1015.1 hPa | 0 mm | - | 331 W/m² | - |
| 1777505168 | 18.89° C | 34% | 1015.1 hPa | 0 mm | - | 344 W/m² | - |
| 1777504865 | 20° C | 33% | 1015 hPa | 0 mm | - | 356 W/m² | - |
| 1777504562 | 20° C | 33% | 1015.1 hPa | 0 mm | - | 369 W/m² | - |
| 1777504258 | 19.44° C | 33% | 1015.1 hPa | 0 mm | - | 382 W/m² | - |
| 1777503954 | 18.89° C | 33% | 1015.1 hPa | 0 mm | - | 392 W/m² | - |
| 1777503650 | 18.89° C | 33% | 1015.1 hPa | 0 mm | - | 405 W/m² | - |
| 1777503347 | 19.44° C | 33% | 1015.5 hPa | 0 mm | - | 418 W/m² | - |
| 1777503043 | 19.44° C | 33% | 1015.7 hPa | 0 mm | - | 429 W/m² | - |
* Rain latest hour (hover to see other rain measurements)
** Current wind speed in m/s (hover to see current wind gust speed)